"2016-01-10 00:00:00",1271451,4.217,182.6,6.831,1.347,0.582,97.69289,-6.576,-5.178,75.98,0,109.4,13.29,-5.85,144.6
"2016-01-10 00:00:30",1271452,3.572,178.6,6.737,1.335,-1.089,97.6903,-6.583,-5.355,75.97,0,109.4,13.29,-5.85,140.6
"2016-01-10 00:01:00",1271453,3.738,178.1,6.882,1.32,-0.386,97.69252,-6.577,-5.292,76.21,0,109.5,13.29,-5.85,140.1
"2016-01-10 00:01:30",1271454,3.983,177.6,6.965,1.322,0.765,97.69971,-6.559,-5.211,76.42,0,109.4,13.29,-5.83,139.6
"2016-01-10 00:02:00",1271455,4.022,175.7,6.804,1.287,0.886,97.70135,-6.554,-5.248,76.49,0,109.4,13.3,-5.83,137.7
"2016-01-10 00:02:30",1271456,4.093,174.2,6.915,1.329,0.72,97.69475,-6.571,-5.263,76.56,0,109.4,13.3,-5.84,136.2
"2016-01-10 00:03:00",1271457,3.767,171.8,7.089,1.367,-0.397,97.68935,-6.585,-5.334,76.54,0,109.4,13.3,-5.86,133.8
"2016-01-10 00:03:30",1271458,3.879,172.5,7.114,1.385,-0.095,97.68532,-6.595,-5.376,76.54,0,109.3,13.29,-5.87,134.5
"2016-01-10 00:04:00",1271459,3.645,171.2,7.019,1.344,-0.43,97.67707,-6.616,-5.378,76.46,0,109.3,13.29,-5.89,133.2
"2016-01-10 00:04:30",1271460,4.214,174.3,7.098,1.323,0.611,97.67735,-6.616,-5.318,76.48,0,109.3,13.29,-5.89,136.3
"2016-01-10 00:05:00",1271461,4.453,175.7,6.838,1.271,1.111,97.6826,-6.602,-5.334,76.4,0,109.3,13.29,-5.87,137.7
"2016-01-10 00:05:30",1271462,4.798,177.7,6.479,1.221,1.533,97.68288,-6.601,-5.285,76.34,0,109.3,13.29,-5.87,139.7
"2016-01-10 00:06:00",1271463,4.495,177.9,6.777,1.299,1.387,97.68343,-6.6,-5.308,76.25,0,109.3,13.29,-5.87,139.9
"2016-01-10 00:06:30",1271464,4.704,178.6,6.684,1.257,1.004,97.67239,-6.628,-5.325,76.16,0,109.3,13.29,-5.90,140.6
"2016-01-10 00:07:00",1271465,3.592,174.2,6.261,1.218,-1.278,97.66357,-6.651,-5.465,75.96,0,109.3,13.29,-5.92,136.2
"2016-01-10 00:07:30",1271466,3.99,178.1,6.534,1.313,-0.791,97.65446,-6.674,-5.486,75.88,0,109.3,13.29,-5.95,140.1
"2016-01-10 00:08:00",1271467,4.752,181,6.82,1.316,0.858,97.65247,-6.679,-5.368,75.92,0,109.3,13.29,-5.95,143.0
"2016-01-10 00:08:30",1271468,4.668,181.8,6.737,1.329,1.265,97.65358,-6.676,-5.402,75.89,0,109.3,13.3,-5.95,143.8
"2016-01-10 00:09:00",1271469,4.963,182.5,6.712,1.265,1.663,97.65385,-6.675,-5.375,75.89,0,109.3,13.3,-5.95,144.5
"2016-01-10 00:09:30",1271470,4.106,178.8,6.83,1.342,0.135,97.65385,-6.675,-5.391,75.95,0,109.3,13.31,-5.95,140.8
"2016-01-10 00:10:00",1271471,4.357,179.8,7.098,1.371,0.224,97.65385,-6.675,-5.413,76.06,0,109.3,13.31,-5.95,141.8
"2016-01-10 00:10:30",1271472,3.909,177.7,6.755,1.318,-0.474,97.65385,-6.675,-5.478,76.1,0,109.3,13.31,-5.95,139.7
"2016-01-10 00:11:00",1271473,4.274,178.6,6.968,1.38,0.574,97.65385,-6.675,-5.421,76.29,0,109.3,13.31,-5.95,140.6
"2016-01-10 00:11:30",1271474,4.523,179,7.009,1.328,1.021,97.65385,-6.675,-5.4,76.46,0,109.3,13.31,-5.95,141.0
"2016-01-10 00:12:00",1271475,4.593,179.7,6.561,1.299,1.707,97.65385,-6.675,-5.411,76.59,0,109.3,13.31,-5.95,141.7
"2016-01-10 00:12:30",1271476,4.767,178.7,6.669,1.29,1.039,97.65385,-6.675,-5.391,76.67,0,109.3,13.31,-5.95,140.7
"2016-01-10 00:13:00",1271477,4.21,175.5,7.04,1.376,-0.048,97.65385,-6.675,-5.413,76.68,0,109.3,13.31,-5.95,137.5
"2016-01-10 00:13:30",1271478,3.949,172.9,6.607,1.338,-0.693,97.65385,-6.675,-5.464,76.63,0,109.3,13.31,-5.95,134.9
"2016-01-10 00:14:00",1271479,4.184,173.9,6.805,1.372,0.116,97.65441,-6.674,-5.484,76.51,0,109.3,13.31,-5.95,135.9
"2016-01-10 00:14:30",1271480,4.558,176.5,6.509,1.327,1.354,97.65524,-6.672,-5.358,76.5,0,109.3,13.31,-5.94,138.5
"2016-01-10 00:15:00",1271481,4.506,175.3,6.909,1.329,1.392,97.658,-6.665,-5.397,76.3,0,109.3,13.31,-5.94,137.3
"2016-01-10 00:15:30",1271482,4.266,174,6.877,1.323,0.235,97.66161,-6.656,-5.37,76.21,0,109.3,13.31,-5.93,136.0
"2016-01-10 00:16:00",1271483,4.117,173.8,7.313,1.347,-0.206,97.66631,-6.644,-5.443,76,0,109.3,13.31,-5.91,135.8
"2016-01-10 00:16:30",1271484,4.202,173.2,6.855,1.347,-0.264,97.67184,-6.629,-5.467,75.86,0,109.3,13.31,-5.90,135.2
"2016-01-10 00:17:00",1271485,4.133,173.7,6.907,1.354,-0.066,97.6749,-6.622,-5.435,75.82,0,109.3,13.31,-5.89,135.7
"2016-01-10 00:17:30",1271486,4.809,176.9,6.732,1.317,1.502,97.67769,-6.615,-5.362,75.84,0,109.3,13.32,-5.89,138.9
"2016-01-10 00:18:00",1271487,4.781,176.2,6.991,1.302,1.313,97.68049,-6.607,-5.389,75.85,0,109.3,13.32,-5.88,138.2
"2016-01-10 00:18:30",1271488,4.701,175.3,7.035,1.376,1.049,97.68529,-6.595,-5.348,75.91,0,109.3,13.32,-5.87,137.3
"2016-01-10 00:19:00",1271489,4.709,174.4,7.01,1.337,0.693,97.6884,-6.587,-5.424,75.89,0,109.3,13.32,-5.86,136.4
"2016-01-10 00:19:30",1271490,4.483,173,6.834,1.374,0.558,97.69265,-6.577,-5.377,75.92,0,109.3,13.32,-5.85,135.0
"2016-01-10 00:20:00",1271491,4.519,171.4,6.788,1.347,0.455,97.69576,-6.569,-5.343,75.92,0,109.3,13.31,-5.84,133.4
"2016-01-10 00:20:30",1271492,4.895,170.8,6.864,1.279,1.168,97.69661,-6.566,-5.312,75.85,0,109.3,13.31,-5.84,132.8
"2016-01-10 00:21:00",1271493,4.74,171.4,6.446,1.321,1.282,97.69827,-6.562,-5.35,75.7,0,109.3,13.31,-5.83,133.4
"2016-01-10 00:21:30",1271494,4.14,170.2,7.289,1.346,0.776,97.70214,-6.552,-5.333,75.59,0,109.3,13.31,-5.82,132.2
"2016-01-10 00:22:00",1271495,4.126,171,7.076,1.369,0.031,97.70383,-6.548,-5.415,75.37,0,109.3,13.31,-5.82,133.0
"2016-01-10 00:22:30",1271496,4.46,173.4,7.087,1.363,-0.068,97.70579,-6.543,-5.414,75.26,0,109.3,13.31,-5.81,135.4
"2016-01-10 00:23:00",1271497,4.423,176.2,7.019,1.344,0.951,97.70609,-6.542,-5.347,75.35,0,109.3,13.31,-5.81,138.2
"2016-01-10 00:23:30",1271498,4.328,177,6.724,1.322,1.34,97.70749,-6.539,-5.297,75.44,0,109.3,13.31,-5.81,139.0
"2016-01-10 00:24:00",1271499,4.56,179.2,6.891,1.316,1.199,97.70493,-6.545,-5.335,75.37,0,109.3,13.31,-5.82,141.2
"2016-01-10 00:24:30",1271500,4.476,181.5,7.316,1.381,0.605,97.70521,-6.545,-5.328,75.41,0,109.3,13.31,-5.82,143.5
"2016-01-10 00:25:00",1271501,4.508,183.7,7.189,1.315,-0.36,97.70663,-6.541,-5.341,75.4,0,109.2,13.31,-5.81,145.7
"2016-01-10 00:25:30",1271502,4.379,183.9,6.924,1.339,-0.407,97.70521,-6.545,-5.354,75.47,0,109.3,13.32,-5.82,145.9
"2016-01-10 00:26:00",1271503,5.068,187,6.579,1.324,0.766,97.70351,-6.549,-5.295,75.59,0,109.3,13.32,-5.82,149.0
"2016-01-10 00:26:30",1271504,4.961,187.5,6.752,1.294,1.135,97.70266,-6.551,-5.287,75.66,0,109.3,13.32,-5.82,149.5
"2016-01-10 00:27:00",1271505,5.037,186.6,6.69,1.27,0.927,97.69869,-6.561,-5.305,75.71,0,109.3,13.32,-5.83,148.6
"2016-01-10 00:27:30",1271506,5.072,187.6,6.498,1.289,1.013,97.69643,-6.567,-5.305,75.74,0,109.3,13.32,-5.84,149.6
"2016-01-10 00:28:00",1271507,4.381,184.1,6.921,1.358,-0.507,97.69302,-6.576,-5.345,75.75,0,109.3,13.32,-5.85,146.1
"2016-01-10 00:28:30",1271508,4.665,184.8,7.22,1.37,0.055,97.69104,-6.581,-5.399,75.67,0,109.3,13.32,-5.85,146.8
"2016-01-10 00:29:00",1271509,4.868,184.8,6.787,1.306,0.384,97.68877,-6.586,-5.313,75.78,0,109.3,13.32,-5.86,146.8
"2016-01-10 00:29:30",1271510,4.977,185.7,6.43,1.327,1.141,97.6882,-6.588,-5.301,75.88,0,109.3,13.32,-5.86,147.7
"2016-01-10 00:30:00",1271511,5.052,184.7,6.38,1.298,1.072,97.6882,-6.588,-5.302,75.99,0,109.2,13.32,-5.86,146.7
"2016-01-10 00:30:30",1271512,4.366,178.9,6.78,1.302,-0.43,97.68764,-6.589,-5.368,76.02,0,109.3,13.32,-5.86,140.9
"2016-01-10 00:31:00",1271513,4.87,182.8,6.652,1.304,0.734,97.68764,-6.589,-5.34,76.27,0,109.3,13.32,-5.86,144.8
"2016-01-10 00:31:30",1271514,4.149,178.2,6.388,1.292,-1.194,97.68707,-6.591,-5.434,76.41,0,109.3,13.32,-5.86,140.2
"2016-01-10 00:32:00",1271515,4.876,183.4,6.847,1.356,0.746,97.68736,-6.59,-5.289,76.78,0,109.3,13.33,-5.86,145.4
"2016-01-10 00:32:30",1271516,5.101,183.3,6.762,1.314,1.039,97.68735,-6.59,-5.331,76.98,0,109.3,13.33,-5.86,145.3
"2016-01-10 00:33:00",1271517,5.225,184.8,6.828,1.332,0.854,97.68736,-6.59,-5.287,77.18,0,109.3,13.33,-5.86,146.8
"2016-01-10 00:33:30",1271518,5.006,184.4,6.828,1.37,0.516,97.68735,-6.59,-5.288,77.32,0,109.3,13.33,-5.86,146.4
"2016-01-10 00:34:00",1271519,4.651,182.8,7.063,1.387,-0.282,97.68819,-6.588,-5.382,77.29,0,109.3,13.33,-5.86,144.8
"2016-01-10 00:34:30",1271520,4.223,181,6.496,1.308,-1.146,97.68846,-6.587,-5.449,77.25,0,109.3,13.33,-5.86,143.0
"2016-01-10 00:35:00",1271521,4.949,185.2,6.952,1.314,0.616,97.69039,-6.582,-5.285,77.31,0,109.3,13.33,-5.85,147.2
"2016-01-10 00:35:30",1271522,4.854,186.5,6.432,1.297,1.276,97.68985,-6.584,-5.288,77.16,0,109.3,13.33,-5.85,148.5
"2016-01-10 00:36:00",1271523,4.622,186,6.766,1.344,0.622,97.69649,-6.567,-5.303,76.95,0,109.3,13.33,-5.84,148.0
"2016-01-10 00:36:30",1271524,4.528,186.1,6.882,1.313,0.355,97.69649,-6.567,-5.359,76.77,0,109.3,13.33,-5.84,148.1
"2016-01-10 00:37:00",1271525,4.223,184.9,7.007,1.37,-0.334,97.70036,-6.557,-5.317,76.74,0,109.3,13.33,-5.83,146.9
"2016-01-10 00:37:30",1271526,4.395,186.3,6.919,1.374,0.235,97.70341,-6.549,-5.336,76.7,0,109.3,13.33,-5.82,148.3
"2016-01-10 00:38:00",1271527,4.611,186.8,6.694,1.35,0.596,97.70341,-6.549,-5.289,76.8,0,109.3,13.33,-5.82,148.8
"2016-01-10 00:38:30",1271528,4.84,188.1,6.789,1.348,0.915,97.70452,-6.546,-5.289,76.87,0,109.3,13.33,-5.82,150.1
"2016-01-10 00:39:00",1271529,5.053,189.1,6.812,1.284,1.118,97.70369,-6.548,-5.286,77.01,0,109.3,13.33,-5.82,151.1
"2016-01-10 00:39:30",1271530,4.984,189.9,6.851,1.314,0.82,97.7048,-6.546,-5.278,77.2,0,109.3,13.32,-5.82,151.9
"2016-01-10 00:40:00",1271531,4.291,187.8,7.01,1.326,-0.032,97.70451,-6.546,-5.299,77.33,0,109.3,13.33,-5.82,149.8
"2016-01-10 00:40:30",1271532,4.383,187.5,6.905,1.359,-0.513,97.70396,-6.548,-5.306,77.47,0,109.3,13.33,-5.82,149.5
"2016-01-10 00:41:00",1271533,4.901,191,6.624,1.313,1.145,97.70424,-6.547,-5.285,77.65,0,109.3,13.33,-5.82,153.0
"2016-01-10 00:41:30",1271534,4.844,188.5,6.964,1.331,0.961,97.70424,-6.547,-5.314,77.79,0,109.3,13.33,-5.82,150.5
"2016-01-10 00:42:00",1271535,4.678,190.4,7.056,1.33,1.07,97.7048,-6.546,-5.287,77.93,0,109.3,13.33,-5.82,152.4
"2016-01-10 00:42:30",1271536,4.622,191.9,6.959,1.323,0.641,97.70562,-6.544,-5.294,78.04,0,109.3,13.33,-5.81,153.9
"2016-01-10 00:43:00",1271537,4.727,191.2,7.012,1.326,0.822,97.70756,-6.539,-5.278,78.14,0,109.3,13.33,-5.81,153.2
"2016-01-10 00:43:30",1271538,5.102,192.6,6.239,1.21,1.281,97.70866,-6.536,-5.255,78.26,0,109.3,13.33,-5.81,154.6
"2016-01-10 00:44:00",1271539,4.299,186.9,7.033,1.272,-0.222,97.70923,-6.534,-5.329,78.26,0,109.3,13.34,-5.81,148.9
"2016-01-10 00:44:30",1271540,4.664,187.7,6.864,1.344,0.585,97.71172,-6.528,-5.364,78.24,0,109.3,13.34,-5.80,149.7
"2016-01-10 00:45:00",1271541,4.526,187,6.569,1.363,0.709,97.71117,-6.529,-5.256,78.36,0,109.3,13.34,-5.80,149.0
"2016-01-10 00:45:30",1271542,4.827,187.6,6.518,1.246,0.879,97.71144,-6.529,-5.29,78.36,0,109.3,13.34,-5.80,149.6
"2016-01-10 00:46:00",1271543,3.93,183.3,6.674,1.291,-0.608,97.70946,-6.534,-5.332,78.35,0,109.3,13.34,-5.80,145.3
"2016-01-10 00:46:30",1271544,4.374,185.1,6.985,1.349,0.271,97.70999,-6.532,-5.297,78.47,0,109.3,13.34,-5.80,147.1
"2016-01-10 00:47:00",1271545,4.854,186.1,6.777,1.316,0.751,97.70459,-6.546,-5.31,78.49,0,109.3,13.34,-5.82,148.1
"2016-01-10 00:47:30",1271546,4.798,184.6,7.007,1.325,0.552,97.70204,-6.553,-5.3,78.54,0,109.3,13.34,-5.82,146.6
"2016-01-10 00:48:00",1271547,4.923,184.3,6.785,1.327,0.862,97.69835,-6.562,-5.286,78.65,0,109.3,13.34,-5.83,146.3
"2016-01-10 00:48:30",1271548,4.926,185.3,6.575,1.322,0.778,97.69582,-6.568,-5.304,78.68,0,109.3,13.34,-5.84,147.3
"2016-01-10 00:49:00",1271549,4.409,181.2,6.696,1.333,-0.647,97.69665,-6.566,-5.347,78.66,0,109.3,13.34,-5.84,143.2
"2016-01-10 00:49:30",1271550,4.982,185.1,6.91,1.319,0.215,97.69582,-6.568,-5.337,78.75,0,109.3,13.34,-5.84,147.1
"2016-01-10 00:50:00",1271551,4.524,182.4,7.176,1.326,-0.205,97.69553,-6.569,-5.337,78.81,0,109.3,13.34,-5.84,144.4
"2016-01-10 00:50:30",1271552,5.16,185.6,7.023,1.309,0.951,97.69469,-6.571,-5.322,78.87,0,109.3,13.34,-5.84,147.6
"2016-01-10 00:51:00",1271553,5.305,187,6.528,1.25,1.723,97.69356,-6.574,-5.267,78.95,0,109.3,13.34,-5.85,149.0
"2016-01-10 00:51:30",1271554,5.037,184.8,6.922,1.327,0.877,97.69435,-6.572,-5.305,78.95,0,109.3,13.34,-5.84,146.8
"2016-01-10 00:52:00",1271555,4.924,182,7.057,1.376,-0.259,97.69465,-6.571,-5.411,78.84,0,109.3,13.34,-5.84,144.0
"2016-01-10 00:52:30",1271556,4.833,181.5,6.816,1.342,0.296,97.69182,-6.579,-5.292,79,0,109.3,13.34,-5.85,143.5
"2016-01-10 00:53:00",1271557,4.152,179.2,7.105,1.347,-0.451,97.6963,-6.567,-5.429,78.87,0,109.3,13.34,-5.84,141.2
"2016-01-10 00:53:30",1271558,4.95,182.7,6.583,1.281,0.874,97.69402,-6.573,-5.308,79.03,0,109.3,13.34,-5.84,144.7
"2016-01-10 00:54:00",1271559,5.132,184,6.831,1.301,0.93,97.69654,-6.567,-5.326,79.06,0,109.3,13.34,-5.84,146.0
"2016-01-10 00:54:30",1271560,5.168,183.3,7.002,1.37,0.641,97.69686,-6.566,-5.317,79.13,0,109.3,13.33,-5.84,145.3
"2016-01-10 00:55:00",1271561,5.022,183.5,6.776,1.357,0.494,97.69625,-6.567,-5.319,79.18,0,109.3,13.33,-5.84,145.5
"2016-01-10 00:55:30",1271562,5.142,184.8,6.808,1.349,0.638,97.69514,-6.57,-5.29,79.24,0,109.3,13.33,-5.84,146.8
"2016-01-10 00:56:00",1271563,5.496,184.4,6.895,1.309,0.793,97.69425,-6.572,-5.306,79.28,0,109.3,13.33,-5.84,146.4
"2016-01-10 00:56:30",1271564,5.038,181.7,7.053,1.354,0.128,97.69282,-6.576,-5.338,79.29,0,109.3,13.33,-5.85,143.7
"2016-01-10 00:57:00",1271565,5.385,184.3,6.688,1.287,0.713,97.69338,-6.575,-5.322,79.34,0,109.3,13.33,-5.85,146.3
"2016-01-10 00:57:30",1271566,4.83,181.3,6.829,1.352,-0.147,97.69225,-6.578,-5.382,79.3,0,109.3,13.34,-5.85,143.3
"2016-01-10 00:58:00",1271567,5.268,183.6,6.958,1.328,0.382,97.69309,-6.575,-5.345,79.37,0,109.3,13.33,-5.85,145.6
"2016-01-10 00:58:30",1271568,5.033,181.7,6.848,1.326,-0.394,97.69252,-6.577,-5.404,79.33,0,109.3,13.33,-5.85,143.7
"2016-01-10 00:59:00",1271569,5.395,185,6.794,1.331,0.452,97.6931,-6.575,-5.339,79.41,0,109.3,13.34,-5.85,147.0
"2016-01-10 00:59:30",1271570,5.499,184.6,6.592,1.291,1.114,97.69365,-6.574,-5.29,79.44,0,109.3,13.34,-5.85,146.6
"2016-01-10 01:00:00",1271571,5.495,183.4,6.521,1.289,1.064,97.69309,-6.575,-5.31,79.41,0,109.3,13.34,-5.85,145.4
"2016-01-10 01:00:30",1271572,5.572,182.6,6.792,1.283,0.897,97.6945,-6.572,-5.318,79.36,0,109.3,13.34,-5.84,144.6
"2016-01-10 01:01:00",1271573,5.27,181.2,6.677,1.288,1.325,97.69678,-6.566,-5.27,79.35,0,109.3,13.34,-5.84,143.2
"2016-01-10 01:01:30",1271574,4.847,178.8,6.912,1.332,-0.144,97.70103,-6.555,-5.379,79.24,0,109.3,13.34,-5.83,140.8
"2016-01-10 01:02:00",1271575,5.154,182.2,7.179,1.383,-0.242,97.70329,-6.549,-5.351,79.27,0,109.3,13.34,-5.82,144.2
"2016-01-10 01:02:30",1271576,5.275,182.5,7.31,1.305,-0.15,97.70329,-6.549,-5.32,79.3,0,109.3,13.34,-5.82,144.5
"2016-01-10 01:03:00",1271577,5.528,183.8,6.783,1.272,0.905,97.70528,-6.544,-5.306,79.35,0,109.3,13.34,-5.82,145.8
"2016-01-10 01:03:30",1271578,5.522,184.1,6.672,1.283,0.952,97.7067,-6.541,-5.279,79.41,0,109.3,13.34,-5.81,146.1
"2016-01-10 01:04:00",1271579,5.682,188.2,6.342,1.236,1.747,97.70982,-6.533,-5.267,79.46,0,109.3,13.34,-5.80,150.2
"2016-01-10 01:04:30",1271580,5.818,187.8,6.395,1.228,1.235,97.71152,-6.529,-5.258,79.42,0,109.3,13.34,-5.80,149.8
"2016-01-10 01:05:00",1271581,5.526,186.6,6.603,1.208,1.147,97.71294,-6.525,-5.266,79.42,0,109.2,13.34,-5.80,148.6
"2016-01-10 01:05:30",1271582,5.237,187.5,6.301,1.246,1.423,97.71493,-6.52,-5.272,79.4,0,109.3,13.34,-5.79,149.5
"2016-01-10 01:06:00",1271583,5.248,185.9,6.477,1.202,1.359,97.71436,-6.521,-5.266,79.4,0,109.3,13.34,-5.79,147.9
"2016-01-10 01:06:30",1271584,4.949,182.8,6.695,1.302,0.422,97.71493,-6.52,-5.291,79.33,0,109.3,13.34,-5.79,144.8
"2016-01-10 01:07:00",1271585,4.486,179.8,7.145,1.349,-0.561,97.71577,-6.518,-5.342,79.23,0,109.2,13.34,-5.79,141.8
"2016-01-10 01:07:30",1271586,4.378,178.7,6.959,1.365,-1.152,97.71634,-6.516,-5.473,79.07,0,109.2,13.34,-5.79,140.7
"2016-01-10 01:08:00",1271587,4.636,177.9,6.611,1.357,-0.42,97.7135,-6.523,-5.354,79.19,0,109.3,13.34,-5.79,139.9
"2016-01-10 01:08:30",1271588,4.732,178.8,6.638,1.338,0.633,97.70925,-6.534,-5.285,79.24,0,109.3,13.35,-5.81,140.8
"2016-01-10 01:09:00",1271589,4.921,180.8,6.222,1.237,1.818,97.70641,-6.542,-5.267,79.27,0,109.3,13.35,-5.81,142.8
"2016-01-10 01:09:30",1271590,4.93,181.1,6.339,1.249,1.696,97.70387,-6.548,-5.247,79.25,0,109.3,13.35,-5.82,143.1
"2016-01-10 01:10:00",1271591,4.935,178.5,6.346,1.167,1.475,97.703,-6.55,-5.241,79.21,0,109.3,13.35,-5.82,140.5
"2016-01-10 01:10:30",1271592,4.529,177.1,6.531,1.292,0.909,97.69933,-6.56,-5.279,79.18,0,109.3,13.34,-5.83,139.1
"2016-01-10 01:11:00",1271593,3.873,173.4,6.947,1.331,-0.52,97.69421,-6.573,-5.304,79.16,0,109.3,13.34,-5.84,135.4
"2016-01-10 01:11:30",1271594,2.995,169.5,3.668,0.92,-2.744,97.68771,-6.589,-5.523,78.97,0,109.3,13.35,-5.86,131.5
"2016-01-10 01:12:00",1271595,3.536,173.6,6.684,1.311,-1.052,97.68656,-6.592,-5.388,79.13,0,109.3,13.35,-5.86,135.6
"2016-01-10 01:12:30",1271596,4.313,177.7,6.649,1.284,0.936,97.68712,-6.591,-5.29,79.25,0,109.3,13.35,-5.86,139.7
"2016-01-10 01:13:00",1271597,4.362,178.1,6.543,1.289,1.907,97.68767,-6.589,-5.28,79.32,0,109.3,13.35,-5.86,140.1
"2016-01-10 01:13:30",1271598,4.256,176.9,6.899,1.307,1.124,97.68767,-6.589,-5.297,79.3,0,109.3,13.35,-5.86,138.9
"2016-01-10 01:14:00",1271599,4.204,177.8,6.339,1.327,0.599,97.68315,-6.601,-5.369,79.28,0,109.3,13.35,-5.87,139.8
"2016-01-10 01:14:30",1271600,3.328,173.8,6.448,1.202,-1.491,97.66838,-6.638,-5.456,79.26,0,109.3,13.35,-5.91,135.8
"2016-01-10 01:15:00",1271601,3.469,176.2,5.989,1.239,-1.093,97.66244,-6.653,-5.41,79.36,0,109.3,13.35,-5.92,138.2
"2016-01-10 01:15:30",1271602,4.708,182.3,6.357,1.305,0.54,97.65617,-6.669,-5.378,79.42,0,109.3,13.35,-5.94,144.3
"2016-01-10 01:16:00",1271603,5.012,182.3,6.476,1.324,0.818,97.65697,-6.667,-5.333,79.52,0,109.3,13.35,-5.94,144.3
"2016-01-10 01:16:30",1271604,5.179,180.9,6.723,1.275,1.07,97.65891,-6.662,-5.348,79.54,0,109.2,13.35,-5.93,142.9
"2016-01-10 01:17:00",1271605,5.032,179.3,6.963,1.362,0.817,97.65945,-6.661,-5.357,79.51,0,109.3,13.35,-5.93,141.3
"2016-01-10 01:17:30",1271606,5.321,182.3,6.026,1.193,1.152,97.64803,-6.69,-5.383,79.43,0,109.3,13.35,-5.96,144.3
"2016-01-10 01:18:00",1271607,4.698,179.9,7.078,1.335,-0.273,97.63701,-6.718,-5.396,79.34,0,109.3,13.35,-5.99,141.9
"2016-01-10 01:18:30",1271608,5.348,184.6,6.521,1.282,0.799,97.63132,-6.733,-5.424,79.24,0,109.3,13.35,-6.00,146.6
"2016-01-10 01:19:00",1271609,5.153,184.1,7.016,1.276,0.745,97.6299,-6.736,-5.41,79.18,0,109.3,13.35,-6.01,146.1
"2016-01-10 01:19:30",1271610,5.271,184.2,6.883,1.317,0.698,97.62987,-6.736,-5.442,79.11,0,109.3,13.35,-6.01,146.2
"2016-01-10 01:20:00",1271611,5.076,185.7,6.677,1.351,0.576,97.63097,-6.734,-5.442,79.09,0,109.3,13.35,-6.01,147.7
"2016-01-10 01:20:30",1271612,4.512,184.8,7.023,1.331,-0.12,97.63429,-6.725,-5.491,79.04,0,109.3,13.35,-6.00,146.8
"2016-01-10 01:21:00",1271613,3.986,183.9,6.621,1.364,-0.799,97.63319,-6.728,-5.495,79.08,0,109.2,13.35,-6.00,145.9
"2016-01-10 01:21:30",1271614,4.09,183.5,7.234,1.347,-0.505,97.63319,-6.728,-5.537,79.12,0,109.3,13.36,-6.00,145.5
"2016-01-10 01:22:00",1271615,4.308,183.3,7.194,1.291,0.297,97.63512,-6.723,-5.541,79.24,0,109.3,13.35,-5.99,145.3
"2016-01-10 01:22:30",1271616,4.18,181.7,7.092,1.286,0.501,97.63428,-6.725,-5.489,79.4,0,109.3,13.35,-6.00,143.7
"2016-01-10 01:23:00",1271617,3.526,176.8,7.011,1.318,-1.107,97.62911,-6.738,-5.53,79.48,0,109.3,13.35,-6.01,138.8
"2016-01-10 01:23:30",1271618,3.989,178.5,6.736,1.347,-0.353,97.61665,-6.77,-5.557,79.53,0,109.3,13.36,-6.04,140.5
"2016-01-10 01:24:00",1271619,3.992,177.9,7.074,1.371,-0.528,97.60867,-6.79,-5.554,79.67,0,109.3,13.36,-6.06,139.9
"2016-01-10 01:24:30",1271620,4.45,180.7,6.838,1.309,0.267,97.60442,-6.801,-5.519,79.81,0,109.3,13.36,-6.07,142.7
"2016-01-10 01:25:00",1271621,4.65,179.3,6.79,1.318,0.982,97.60386,-6.802,-5.509,79.88,0,109.3,13.36,-6.07,141.3
"2016-01-10 01:25:30",1271622,4.613,178,6.854,1.311,1.14,97.60607,-6.797,-5.518,79.98,0,109.3,13.36,-6.07,140.0
"2016-01-10 01:26:00",1271623,4.7,178.1,6.999,1.314,0.975,97.60524,-6.799,-5.517,80.1,0,109.3,13.36,-6.07,140.1
"2016-01-10 01:26:30",1271624,4.671,177,7.011,1.332,0.042,97.6058,-6.798,-5.58,80,0,109.3,13.36,-6.07,139.0
"2016-01-10 01:27:00",1271625,4.936,177.2,6.933,1.379,0.405,97.60036,-6.811,-5.536,80.1,0,109.3,13.36,-6.08,139.2
"2016-01-10 01:27:30",1271626,4.61,174.7,6.815,1.367,-0.18,97.59184,-6.833,-5.583,80,0,109.3,13.36,-6.11,136.7
"2016-01-10 01:28:00",1271627,5.179,178.6,7.047,1.346,1.073,97.58955,-6.839,-5.558,80,0,109.3,13.35,-6.11,140.6
"2016-01-10 01:28:30",1271628,5.401,180,6.509,1.256,2.03,97.58816,-6.842,-5.548,80,0,109.3,13.35,-6.11,142.0
"2016-01-10 01:29:00",1271629,5.357,180,6.321,1.216,2.118,97.58985,-6.838,-5.529,80,0,109.3,13.34,-6.11,142.0
"2016-01-10 01:29:30",1271630,5.319,178.8,6.472,1.237,1.563,97.58904,-6.84,-5.529,79.97,0,109.3,13.34,-6.11,140.8
"2016-01-10 01:30:00",1271631,5.508,179.4,5.917,1.211,1.315,97.58959,-6.839,-5.545,79.92,0,109.3,13.34,-6.11,141.4
"2016-01-10 01:30:30",1271632,5.524,181,6.061,1.23,1.067,97.59241,-6.832,-5.532,79.88,0,109.3,13.34,-6.10,143.0
"2016-01-10 01:31:00",1271633,5.829,182.4,6.406,1.212,1.07,97.60145,-6.809,-5.569,79.83,0,109.3,13.34,-6.08,144.4
"2016-01-10 01:31:30",1271634,5.843,183.3,6.414,1.208,1.024,97.60938,-6.788,-5.557,79.79,0,109.3,13.34,-6.06,145.3
"2016-01-10 01:32:00",1271635,5.532,182.9,6.622,1.277,1.089,97.60995,-6.787,-5.573,79.76,0,109.3,13.34,-6.06,144.9
"2016-01-10 01:32:30",1271636,5.583,183.6,6.316,1.251,1.374,97.6094,-6.788,-5.547,79.7,0,109.3,13.34,-6.06,145.6
"2016-01-10 01:33:00",1271637,5.737,183.8,5.933,1.161,0.941,97.61079,-6.785,-5.53,79.63,0,109.3,13.35,-6.06,145.8
"2016-01-10 01:33:30",1271638,5.514,182.6,6.567,1.21,0.785,97.6105,-6.786,-5.549,79.58,0,109.3,13.35,-6.06,144.6
"2016-01-10 01:34:00",1271639,5.403,182.6,6.41,1.211,0.886,97.61023,-6.786,-5.547,79.51,0,109.3,13.35,-6.06,144.6
"2016-01-10 01:34:30",1271640,5.285,182.5,6.442,1.208,1.232,97.61195,-6.782,-5.548,79.46,0,109.3,13.35,-6.05,144.5
"2016-01-10 01:35:00",1271641,5.099,182.3,6.59,1.284,0.807,97.61846,-6.765,-5.539,79.39,0,109.3,13.35,-6.04,144.3
"2016-01-10 01:35:30",1271642,5.322,182.7,6.526,1.211,1.067,97.62782,-6.742,-5.507,79.37,0,109.3,13.35,-6.01,144.7
"2016-01-10 01:36:00",1271643,5.366,184,6.074,1.219,0.646,97.64058,-6.709,-5.486,79.32,0,109.3,13.35,-5.98,146.0
"2016-01-10 01:36:30",1271644,5.188,182,6.69,1.195,0.249,97.64397,-6.7,-5.525,79.23,0,109.3,13.35,-5.97,144.0
"2016-01-10 01:37:00",1271645,4.38,179.7,6.957,1.351,-0.867,97.64481,-6.698,-5.57,79.13,0,109.3,13.35,-5.97,141.7
"2016-01-10 01:37:30",1271646,2.945,173.1,0.354,0.025,-3.362,97.64399,-6.7,-5.759,78.9,0,109.3,13.4,-5.97,135.1
"2016-01-10 01:38:00",1271647,4.183,179.2,6.921,1.336,-0.644,97.64343,-6.702,-5.587,79.05,0,109.3,13.36,-5.97,141.2
"2016-01-10 01:38:30",1271648,4.579,180.1,7.008,1.304,0.409,97.64481,-6.698,-5.516,79.07,0,109.3,13.36,-5.97,142.1
"2016-01-10 01:39:00",1271649,4.73,181.2,6.184,1.219,1.75,97.64399,-6.7,-5.46,79.08,0,109.3,13.36,-5.97,143.2
"2016-01-10 01:39:30",1271650,4.544,182.7,6.354,1.273,1.144,97.64371,-6.701,-5.461,79.06,0,109.3,13.36,-5.97,144.7
"2016-01-10 01:40:00",1271651,4.5,179.8,6.377,1.213,1.322,97.64454,-6.699,-5.461,79.06,0,109.3,13.36,-5.97,141.8
"2016-01-10 01:40:30",1271652,4.318,179.1,6.435,1.238,1.226,97.64371,-6.701,-5.443,79.11,0,109.3,13.36,-5.97,141.1
"2016-01-10 01:41:00",1271653,3.736,174.9,7.392,1.326,-0.352,97.64343,-6.702,-5.515,79.07,0,109.3,13.36,-5.97,136.9
"2016-01-10 01:41:30",1271654,3.119,171.4,6.169,1.153,-2.187,97.64426,-6.7,-5.612,79.02,0,109.2,13.36,-5.97,133.4
"2016-01-10 01:42:00",1271655,2.9,170.1,4.632,0.932,-2.93,97.64397,-6.7,-5.734,78.96,0,109.3,13.36,-5.97,132.1
"2016-01-10 01:42:30",1271656,4.093,178.3,6.846,1.35,-0.054,97.63461,-6.724,-5.515,79.19,0,109.3,13.36,-6.00,140.3
"2016-01-10 01:43:00",1271657,4.634,181.4,6.802,1.257,1.237,97.62098,-6.759,-5.471,79.27,0,109.3,13.36,-6.03,143.4
"2016-01-10 01:43:30",1271658,4.588,181.9,6.583,1.247,1.243,97.61503,-6.774,-5.476,79.23,0,109.3,13.36,-6.05,143.9
"2016-01-10 01:44:00",1271659,5.154,184.2,6.407,1.152,1.168,97.61079,-6.785,-5.443,79.23,0,109.3,13.36,-6.06,146.2
"2016-01-10 01:44:30",1271660,5.085,185,6.108,1.158,0.799,97.61079,-6.785,-5.457,79.13,0,109.3,13.36,-6.06,147.0